Location: Lecco
(45.8566°N, 9.3977°E)
Time: 07:47:19
(UTC+02:00)

Altair - Pass Details

Date: 17 August 2020
Orbit: 1501 x 1682 km, 47.2° (Epoch: 25 September)

Event Time Altitude Azimuth Distance (km) Brightness Sun altitude
Rises 08:19:09 0° 292° (WNW) 4,717 9.5 18.6°
Reaches altitude 10° 08:22:22 10° 287° (WNW) 3,710 9.0 19.2°
Maximum altitude 08:31:07 48° 217° (SW) 1,900 8.0 20.7°
Drops below altitude 10° 08:39:43 10° 147° (SSE) 3,643 10.1 22.2°
Sets 08:42:51 0° 142° (SE) 4,625 10.6 22.7°
